Current weather by "City, St" or "zip code"  
 
Advertise Here

Current Conditions: Albany International Airport, NY

A Few Clouds


65.0 F

Last Updated on Sep 16 2021, 11:51 pm EDT
Humidity: 97%
Wind Speed: SE 5.8 mph
Barometer 30.28 in
Dewpoint: 64.0 F
Visibility: 10.00 mi
Precip: --
Heat Index: NA
Wind Chill: NA
Current conditions at:

Albany International Airport, NY (KALB)

Lat: 42.74722 Lon: 73.79912

Local Radar Image active severe weather and emergency alerts image image weather storm and storm spotter reports image weather observation monitoring service image
Local
Radar
Active
Alerts
Storm Reports Obs
Monitoring

Sign-up For Email & Text Message Weather Alert Notification Services



Advertise Here

Observation History for Albany International Airport, NY


Time Wind
(mph)
Vis
(mi)
Weather Precip (in) Temperature (F) Relative
Humidity
Wind
Chill
(F)
Heat
Index
(F)
Pressure
Air Dwpt altimeter
(in)
sea level
(mb)
Rmks
11:51 pm EDT SE 5.8 10.00 A Few Clouds -- 65.0 64.0 97% NA NA 30.28 1025.2
10:51 pm EDT SE 4.6 10.00 Partly Cloudy -- 66.0 63.0 90% NA NA 30.28 1025.2
9:51 pm EDT E 4.6 10.00 Mostly Cloudy -- 67.0 63.0 87% NA NA 30.28 1025.4
8:51 pm EDT E 3.5 10.00 Mostly Cloudy -- 68.0 62.1 81% NA NA 30.28 1025.3
7:51 pm EDT NE 5.8 10.00 Overcast -- 69.0 62.1 78% NA NA 30.26 1024.8
6:51 pm EDT NE 5.8 10.00 Mostly Cloudy -- 70.0 63.0 79% NA NA 30.24 1024.1
5:51 pm EDT NE 3.5 10.00 Mostly Cloudy -- 71.0 61.0 71% NA NA 30.23 1023.7
4:51 pm EDT N 0.0 10.00 Partly Cloudy -- 74.0 61.0 64% NA NA 30.22 1023.4
3:51 pm EDT N 0.0 10.00 Partly Cloudy -- 73.0 61.0 66% NA NA 30.22 1023.4
2:51 pm EDT N 0.0 10.00 A Few Clouds -- 72.0 61.0 68% NA NA 30.23 1023.8
1:51 pm EDT NW 5.8 10.00 Partly Cloudy -- 71.0 60.1 68% NA NA 30.26 1024.5
12:51 pm EDT 3.5 10.00 A Few Clouds -- 68.0 59.0 73% NA NA 30.27 1024.9
11:51 am EDT NW 5.8 10.00 A Few Clouds -- 66.0 57.0 73% NA NA 30.28 1025.2
10:51 am EDT N 6.9 10.00 A Few Clouds -- 64.0 57.0 78% NA NA 30.28 1025.3
9:51 am EDT NE 6.9 10.00 A Few Clouds -- 62.0 55.9 80% 62 NA 30.27 1024.8
8:51 am EDT N 8.1 10.00 Mostly Cloudy -- 60.0 57.9 93% 59 NA 30.25 1024.4
7:51 am EDT NW 5.8 10.00 Mostly Cloudy -- 56.0 55.9 100% 55 NA 30.23 1023.7
6:51 am EDT N 5.8 10.00 Fog in Vicinity -- 56.0 55.9 100% 55 NA 30.20 1022.5
5:51 am EDT N 4.6 10.00 Overcast -- 57.0 57.0 100% 57 NA 30.17 1021.5
4:51 am EDT NW 5.8 10.00 Overcast -- 59.0 59.0 100% 58 NA 30.16 1021.1
3:51 am EDT N 0.0 10.00 Overcast -- 60.0 60.1 100% NA NA 30.14 1020.4
2:51 am EDT S 4.6 10.00 Overcast 00.02 59.0 59.0 100% 59 NA 30.12 1020.0
1:51 am EDT S 3.5 6.00 Light Rain Fog/Mist 00.07 60.0 60.1 100% NA NA 30.11 1019.5
12:51 am EDT W 3.5 5.00 Light Rain Fog/Mist 00.09 60.0 60.1 100% NA NA 30.11 1019.5

Regional Weather Observation


Fulton County Airport, NY (KNY0)

Partly Cloudy
63.0 F

Albany International Airport, NY (KALB)

A Few Clouds
65.0 F

Bennington Morse State Airport, VT (KDDH)

Partly Cloudy
66.0 F

Glens Falls, Floyd Bennett Memorial Airport, NY (KGFL)

Overcast
57.0 F

North Adams Harriman-and-West Airport, MA (KAQW)

Overcast
67.0 F

Pittsfield Municipal Airport, MA (KPSF)

Overcast
65.0 F
Advertise Here


Advertise Here